#timestamp,LO_Frequency,Hit,StdDev 
1563138015.2,286046997.0,Y
1563138035.9,286047002.7,P
1563138055.7,286047000.1,N
1563138075.6,286047001.1,N
1563138095.4,286047000.9,N
1563138115.3,286046998.8,N
1563138135.1,286046999.5,N
1563138136.0,286046999.5,N
1563138155.8,286046996.5,N
1563138175.7,286046999.3,N
1563138195.5,286047000.8,N
1563138215.3,286046996.6,N
1563138235.2,286046997.7,N
1563138255.0,286046997.0,N
1563138255.9,286046997.0,N
1563138275.8,286046995.0,N
1563138295.6,286046995.2,N
1563138315.4,286046997.8,N
1563138335.3,286046999.4,N
1563138355.1,286046999.5,N
1563138375.9,286046997.0,N
1563138395.7,286046996.5,N
1563138415.5,286046998.9,N
1563138435.4,286046999.1,N
1563138455.2,286046998.4,N
1563138475.0,286046999.0,N
1563138475.9,286046999.0,N
1563138495.8,286046997.0,N
1563138515.6,286047001.2,N
1563138535.5,286047000.9,N
1563138555.3,286047000.3,N
1563138575.1,286047001.2,N
1563138595.9,286047001.2,N
1563138615.7,286047002.4,N
1563138635.6,286046999.9,N
1563138655.4,286046998.2,N
1563138675.2,286046998.6,N
1563138695.1,286046998.2,N
1563138696.0,286046998.2,N
1563138715.8,286047000.6,N
1563138735.7,286047000.1,N
1563138755.5,286047000.0,N
1563138775.3,286047000.4,N
1563138795.2,286047002.5,N
1563138815.0,286047001.7,N
1563138815.9,286047001.7,N
1563138835.7,286047001.1,N
1563138855.6,286046998.2,N
1563138875.4,286046999.0,N
1563138895.3,286046998.6,N
1563138915.1,286047002.3,N
1563138916.0,286047002.3,N
1563138935.8,286047001.4,N
1563138955.7,286047000.5,N
1563138975.5,286047001.8,N
1563138995.4,286047002.3,N
1563139015.2,286047002.5,N
1563139035.0,286047003.6,N
1563139035.9,286047003.6,N
1563139055.8,286047002.2,N
1563139075.6,286047001.8,N
1563139095.5,286047002.8,N
1563139115.3,286047002.5,N
1563139135.1,286047001.6,N
1563139155.9,286047001.7,N
1563139175.7,286047004.0,N
1563139195.6,286047001.6,N
1563139215.9,286047001.7,N
1563139235.7,286047004.2,N
1563139255.6,286047002.0,N
1563139275.2,286047000.5,N
1563139295.0,286047001.2,N
1563139295.9,286047001.2,N
1563139315.8,286047002.3,N
1563139335.6,286047000.4,N
1563139355.5,286047002.5,N
1563139375.3,286046999.9,N
1563139395.1,286047002.5,N
1563139415.9,286047002.6,N
1563139435.7,286047001.8,N
1563139455.5,286047001.7,N
1563139475.4,286047000.2,N
1563139495.2,286047001.9,N
1563139515.1,286047002.5,N
1563139516.0,286047002.5,N
1563139535.8,286047002.1,N
1563139555.6,286047001.8,N
1563139575.5,286047003.7,Y
1563139595.3,286047001.9,P
1563139615.2,286046999.9,N
1563139635.0,286047000.6,N
1563139635.9,286047000.6,N
1563139655.7,286047000.9,N
1563139675.6,286047001.6,N
1563139695.4,286046999.9,N
1563139715.3,286047001.8,N
1563139735.1,286047002.0,N
1563139736.0,286047002.0,N
1563139755.8,286047002.4,N
1563139775.7,286046999.8,N
1563139795.5,286047000.5,N
1563139815.4,286047000.9,N
1563139835.2,286046999.9,N
1563139855.0,286047000.4,N
1563139855.9,286047000.4,N
1563139875.0,286047000.7,N
1563139875.9,286047000.7,N
1563139895.8,286047000.5,N
1563139915.6,286047004.3,Y
1563139935.5,286047003.8,P
1563139955.3,286047001.8,N
1563139975.2,286047000.2,N
1563139995.0,286047000.0,N
1563139995.9,286047000.0,N
1563140015.8,286047000.8,N
1563140035.6,286047001.2,N
1563140055.4,286047000.7,N
1563140075.3,286047002.6,N
1563140095.1,286047002.1,N
1563140115.9,286047000.2,N
1563140135.7,286046998.7,N
1563140155.5,286047001.0,N
1563140175.4,286047000.9,N
1563140195.2,286046999.0,N
1563140215.1,286047001.2,N
1563140216.0,286047001.2,N
1563140235.8,286047002.8,N
1563140255.6,286047002.4,N
1563140275.5,286047001.5,N
1563140295.3,286047002.4,N
1563140315.2,286047000.5,N
1563140335.9,286047002.0,N
1563140355.7,286047002.1,N
1563140375.6,286047002.1,N
1563140395.4,286047003.7,Y
1563140415.3,286047002.7,P
1563140435.1,286047001.5,N
1563140436.0,286047001.5,N
1563140455.8,286047002.1,Y
1563140475.7,286046999.1,P
1563140495.5,286047000.1,N
1563140515.3,286046998.4,N
1563140535.2,286046998.1,N
1563140555.0,286047000.6,N
1563140555.9,286047000.6,N
1563140575.8,286046999.7,N
1563140595.6,286047002.3,N
1563140615.4,286047002.6,N
1563140635.3,286047001.9,N
1563140655.1,286047001.3,N
1563140675.8,286047002.0,N
1563140695.7,286047004.4,Y
1563140715.5,286047001.9,P
1563140735.4,286047001.6,N
1563140755.2,286047002.6,P
1563140775.0,286047002.3,Y
1563140776.0,286047002.3,P
1563140795.8,286047000.5,N
1563140815.6,286046998.2,N
1563140835.5,286047001.0,N
1563140855.3,286046999.9,N
1563140875.1,286046998.6,N
1563140895.9,286046999.6,N
1563140915.7,286046996.6,N
1563140935.6,286046997.2,N
1563140955.4,286046997.1,N
1563140975.2,286046996.6,N
1563140995.1,286046996.5,N
1563140996.0,286046996.5,N
1563141015.8,286046996.7,N
1563141035.7,286046996.9,N
1563141055.5,286046996.6,N
1563141075.4,286046997.6,N
1563141095.2,286046996.8,N
1563141115.0,286046997.7,N
1563141115.9,286046997.7,N
1563141135.8,286046997.8,N
1563141155.6,286046996.7,N
1563141175.5,286046997.9,N
1563141195.3,286046997.0,N
1563141215.1,286046995.2,N
1563141235.9,286046997.6,N
1563141255.7,286046995.9,N
1563141275.5,286046996.5,N
1563141295.4,286046996.6,N
1563141315.2,286046999.6,N
1563141335.1,286046997.7,N
1563141336.0,286046997.7,N
1563141355.8,286046995.3,Y
1563141375.6,286046998.3,P
1563141395.5,286046998.7,P
1563141415.3,286046996.5,P
1563141435.2,286046998.0,N
1563141455.9,286046995.1,Y
1563141475.7,286046998.4,P
1563141495.6,286046999.4,N
1563141515.4,286046998.8,N
1563141535.3,286047001.2,N
1563141555.1,286046998.3,N
1563141556.0,286046998.3,N
1563141575.8,286046996.7,Y
1563141595.7,286046997.7,P
